EHI
0 0 0 0 0 0 0 0 0 1 2 2 1 0 0 0 0 0 0 0 0 0 0 0 1 2 1 1 1 1 0 0 0 0 0 0 0 0 1 1 1 0 0
0 0 0 0 0 0 0 0 0 0 1 2 1 0 0 0 0 0 0 0 0 0 0 0 1 2 2 1 0 0 0 0 0 0 0 0 0 0 0 0 0 0 0
0 0 0 0 0 0 0 0 0 0 0 1 1 0 0 0 0 0 0 0 0 0 0 0 0 1 2 1 0 0 0 0 0 0 0 0 0 0 0 0 0 0 0
0 0 0 0 0 0 0 0 0 0 0 0 0 0 0 0 0 0 0 0 0 0 0 0 0 0 1 1 0 0 0 0 0 0 0 0 0 0 0 0 0 0 0
0 0 0 0 0 0 0 0 0 0 0 0 0 0 0 0 0 0 0 0 0 0 0 0 0 0 0 0 0 0 0 0 0 0 0 0 0 0 0 0 0 0 0
0 0 0 0 0 0 0 0 0 0 0 0 0 0 0 0 0 0 0 0 0 0 0 0 0 0 0 0 0 0 0 0 0 0 0 0 0 0 0 0 0 0 0
0 0 0 0 0 0 0 0 0 0 0 0 0 0 0 0 0 0 0 0 0 0 0 0 0 0 0 0 0 0 0 0 0 0 0 0 0 0 0 0 0 0 0
0 0 0 0 0 0 0 0 0 0 0 0 0 0 0 0 0 0 0 0 0 0 0 0 0 0 0 0 0 0 0 0 0 0 0 0 0 0 0 0 0 0 0
0 0 0 0 0 0 0 0 0 0 0 0 0 0 0 0 0 0 0 0 0 0 0 0 0 0 0 0 0 0 0 0 0 0 0 0 0 0 0 0 0 0 0
0 0 0 0 0 0 0 0 0 0 0 0 0 0 0 0 0 0 0 0 0 0 0 0 0 0 0 0 0 0 0 0 0 0 0 0 0 0 0 0 0 0 0
0 0 0 0 0 0 0 0 0 0 0 0 0 0 0 0 0 0 0 0 0 0 0 0 0 0 0 0 0 0 0 0 0 0 0 0 0 0 0 0 0 0 0
0 0 0 0 0 0 0 0 0 0 0 0 0 0 0 0 0 0 0 0 0 0 0 0 0 0 0 0 0 0 0 0 0 0 0 0 0 0 0 0 0 0 0
0 0 0 0 0 0 0 0 0 0 0 0 0 0 0 0 0 0 0 0 0 0 0 0 0 0 0 0 0 0 0 0 0 0 0 0 0 0 0 0 0 0 0
0 0 0 0 0 0 0 0 0 0 0 0 0 0 0 0 0 0 0 0 0 0 0 0 0 0 0 0 0 0 0 0 0 0 0 0 0 0 0 0 0 0 0
0 0 0 0 0 0 0 0 0 0 0 0 0 0 0 0 0 0 0 0 0 0 0 0 0 0 0 0 0 0 0 0 0 0 0 0 0 0 0 0 0 0 0
0 0 0 0 0 0 0 0 0 0 0 0 0 0 0 0 0 0 0 0 0 0 0 0 0 0 0 0 0 0 0 0 0 0 0 0 0 0 0 0 0 0 0
0 0 0 0 0 0 0 0 0 0 0 0 0 0 0 0 0 0 0 0 0 0 0 0 0 0 0 0 0 0 0 0 0 0 0 0 0 0 0 0 0 0 0
0 0 0 0 0 0 0 0 0 0 0 0 0 0 0 0 0 0 0 0 0 0 0 0 0 0 0 0 0 0 0 0 0 0 0 0 0 0 0 0 0 0 0
0 0 0 0 0 0 0 0 0 0 0 0 0 0 0 0 0 0 0 0 0 0 0 0 0 0 0 0 0 0 0 0 0 0 0 0 0 0 0 0 0 0 0
0 0 0 0 0 0 0 0 0 0 0 0 0 0 0 0 0 0 0 0 0 0 0 0 0 0 0 0 0 0 0 0 0 0 0 0 0 0 0 0 0 0 0
0 0 0 0 0 0 0 0 0 0 0 0 0 0 0 0 0 0 0 0 0 0 0 0 0 0 0 0 0 0 0 0 0 0 0 0 0 0 0 0 0 0 0
0 0 0 0 0 0 0 0 0 0 0 0 0 0 0 0 0 0 0 0 0 0 0 0 0 0 0 0 0 0 0 0 0 0 0 0 0 0 0 0 0 0 0
0 0 0 0 0 0 0 0 0 0 0 0 0 0 0 0 0 0 0 0 0 0 0 0 0 0 0 0 0 0 0 0 0 0 0 0 0 0 0 0 0 0 0
0 0 0 0 0 0 0 0 0 0 0 0 0 0 0 0 0 0 0 0 0 0 0 0 0 0 0 0 0 0 0 0 0 0 0 0 0 0 0 0 0 0 0
0 0 0 0 0 0 0 0 0 0 0 0 0 0 0 0 0 0 0 0 0 0 0 0 0 0 0 0 0 0 0 0 0 0 0 0 0 0 0 0 0 0 0
0 0 0 0 0 0 0 0 0 0 0 0 0 0 0 0 0 0 0 0 0 0 0 0 0 0 0 0 0 0 0 0 0 0 0 0 0 0 0 0 0 0 0
Wind_Speed
2 2 2 2 1 1 1 1 1 2 2 2 2 2 2 2 2 2 2 3 4 4 4 4 4 4 5 6 7 5 6 5 4 3 3 4 5 5 5 5 5 5 5
2 2 2 1 1 1 1 1 1 2 2 2 2 2 2 2 2 2 2 3 3 4 4 5 4 5 4 6 7 6 5 4 5 4 3 4 5 5 5 5 5 6 5
3 3 2 2 2 2 2 2 3 2 2 3 2 1 1 1 2 2 2 3 4 4 5 5 5 5 5 5 6 7 7 5 5 5 4 4 4 2 4 6 6 6 5
4 3 3 3 3 3 3 3 3 2 2 3 4 4 3 3 3 3 3 3 3 4 4 5 5 6 5 6 6 6 6 6 5 5 5 4 3 3 3 4 5 6 6
4 4 3 3 3 3 3 3 3 2 2 3 4 4 4 4 3 3 3 3 3 3 4 4 5 5 5 5 6 6 6 5 5 4 4 5 4 5 4 4 4 5 5
3 3 3 3 3 3 3 3 2 2 2 2 3 4 5 5 4 4 4 3 2 2 3 4 4 5 5 5 5 6 7 6 6 6 5 5 4 5 5 6 5 5 4
3 3 4 4 4 4 3 3 3 3 3 3 3 3 4 5 5 5 4 3 3 2 3 3 4 4 5 5 5 6 6 7 7 7 5 6 6 4 4 5 5 5 4
3 4 4 4 4 4 4 3 3 3 3 3 3 3 3 3 3 4 4 4 3 3 4 4 4 5 5 5 6 5 6 6 7 7 7 5 5 5 4 4 4 5 5
4 4 4 4 4 4 4 4 3 3 3 3 3 3 3 3 3 3 4 3 3 3 4 4 4 5 5 5 6 5 6 6 6 6 6 6 5 5 5 5 5 5 6
4 4 4 4 4 4 4 4 3 3 3 3 3 3 3 3 3 3 4 4 4 4 4 5 5 5 5 5 5 5 6 6 5 5 6 6 5 5 4 5 5 5 6
4 4 5 4 4 4 4 4 3 4 3 3 3 3 3 3 3 3 4 4 4 4 5 5 5 5 5 5 5 5 5 6 6 6 7 7 6 5 5 5 5 5 5
4 4 4 4 4 4 4 4 4 4 4 3 3 3 3 3 3 4 4 4 4 4 5 5 5 5 5 6 6 6 6 6 7 7 7 7 5 7 5 5 6 6 6
4 4 4 4 4 4 5 5 5 4 4 4 3 4 4 4 4 4 4 4 4 5 5 5 6 5 5 6 6 7 6 7 7 7 8 7 7 8 6 7 6 6 6
5 5 5 5 5 5 5 5 5 5 4 4 4 4 4 4 5 4 4 4 4 5 5 5 6 5 5 6 6 6 6 6 6 6 7 8 8 8 8 7 7 6 6
6 5 5 5 5 5 5 5 5 5 4 4 5 5 5 5 4 4 4 4 5 5 5 5 6 5 5 5 6 6 7 6 6 6 7 7 8 8 7 6 6 6 6
7 6 6 6 6 6 6 6 6 5 5 5 5 5 4 4 4 4 4 4 5 5 5 5 5 5 4 6 7 6 6 6 7 6 7 7 7 8 9 10 9 9 8
7 7 7 7 7 7 7 6 6 5 5 5 5 5 4 4 4 5 5 5 5 5 5 5 5 6 6 7 8 7 6 6 6 7 6 5 5 7 7 7 8 9 11
7 7 7 7 7 7 6 5 5 5 5 5 5 4 4 4 4 4 4 4 4 4 4 5 5 6 6 7 8 8 7 6 6 6 7 6 6 6 6 5 5 6 6
7 7 7 7 7 6 5 4 5 4 4 4 5 4 4 4 4 4 5 4 4 4 4 5 5 6 6 6 7 6 5 5 5 5 5 5 6 7 7 5 5 5 4
6 5 5 6 5 5 4 4 4 4 4 5 5 4 4 4 4 5 5 4 4 4 4 4 5 6 6 6 6 6 4 4 4 4 4 6 6 6 6 5 5 6 5
5 5 5 4 5 4 4 4 4 4 4 4 4 4 4 4 4 4 4 4 4 4 4 4 4 4 5 5 6 6 4 3 3 3 3 3 4 5 5 5 5 5 4
5 5 4 4 4 3 3 4 4 4 4 4 4 4 3 3 3 4 3 3 3 3 3 4 4 3 3 4 5 6 5 4 4 4 3 2 3 4 5 4 3 3 3
5 4 4 4 4 3 3 4 4 3 4 3 3 3 3 3 3 3 3 3 3 3 3 3 3 3 3 3 5 5 5 5 4 3 3 3 3 3 3 2 2 2 2
4 4 4 4 4 4 3 4 4 3 3 3 3 3 3 3 3 3 3 3 3 3 3 3 3 3 3 3 3 3 2 3 3 2 2 2 2 2 2 2 2 2 2
4 4 4 5 5 4 4 3 3 3 3 3 3 3 3 3 3 3 3 4 4 4 4 3 3 4 4 4 5 4 3 2 2 2 1 1 1 1 1 1 1 1 1
4 4 5 5 5 4 4 4 3 3 3 3 3 3 3 3 3 3 3 4 5 5 6 6 6 5 6 6 6 6 5 4 3 2 2 2 2 2 2 2 1 1 1
Wind_Direction
283 304 306 302 310 325 290 274 276 266 230 201 204 216 225 225 223 226 227 220 216 211 213 208 204 206 206 205 202 201 201 202 191 196 215 226 227 226 218 218 219 213 214
259 281 287 281 296 299 300 283 264 257 251 241 229 232 233 230 229 227 222 222 221 216 216 211 207 207 212 209 204 201 200 204 200 202 209 221 214 214 221 221 225 225 217
270 277 281 279 282 287 290 286 269 254 253 245 229 211 213 216 218 221 226 229 229 229 226 220 216 211 212 214 208 204 205 205 206 211 214 224 228 206 206 220 223 224 223
269 282 291 294 291 288 285 274 271 270 258 237 224 221 224 230 237 234 236 239 236 237 236 230 224 221 217 218 217 210 209 207 208 212 228 246 272 235 219 206 218 227 231
270 280 287 291 293 294 289 278 270 266 255 239 233 226 231 238 239 235 239 241 239 239 244 237 231 227 225 223 221 216 213 212 214 213 212 221 236 246 246 242 226 224 229
284 293 301 303 304 306 301 291 279 277 271 253 243 234 230 229 228 231 238 242 243 239 243 244 236 230 227 224 222 218 217 218 220 220 218 216 216 218 230 244 243 245 236
290 300 308 310 309 308 305 295 289 289 281 263 253 249 245 236 233 233 233 238 247 251 248 248 242 234 231 228 224 222 222 219 222 225 224 229 233 230 233 244 248 254 254
297 300 307 309 306 304 300 298 294 291 288 274 268 264 262 249 244 242 240 241 247 251 252 249 247 242 237 233 228 226 226 223 223 227 227 230 232 230 230 237 243 253 251
303 307 314 314 309 305 301 296 291 290 289 283 276 267 264 257 253 252 246 247 251 253 252 247 248 247 241 237 232 229 227 227 225 226 228 231 234 233 234 235 236 243 251
309 313 319 321 319 316 311 305 296 293 292 286 279 275 267 269 264 260 253 250 253 254 254 247 244 245 243 241 236 235 229 229 229 227 228 230 232 234 232 231 236 244 249
306 313 318 320 318 317 316 308 303 299 297 292 280 273 271 269 267 261 261 257 255 255 254 250 243 241 241 240 236 235 231 232 234 231 230 230 229 231 229 231 232 234 240
311 314 316 316 316 315 314 310 303 298 295 292 287 279 268 261 259 261 265 265 260 257 257 256 247 246 242 239 237 236 232 232 235 235 233 230 226 231 230 230 232 234 235
318 316 314 311 312 312 310 307 302 295 293 288 281 275 269 263 261 262 264 265 264 261 257 255 249 246 245 243 242 239 238 239 239 240 239 234 228 231 232 232 234 237 238
304 308 309 309 310 309 307 303 298 295 291 283 275 271 270 267 264 263 259 261 263 260 258 258 255 248 247 247 246 243 241 241 244 247 246 240 233 234 234 234 235 238 240
302 303 301 304 307 305 303 300 298 294 287 279 272 270 272 270 266 262 260 259 259 258 257 258 257 253 248 249 252 245 241 242 246 250 251 248 243 241 243 241 235 232 234
298 300 299 300 300 300 298 297 294 292 285 274 272 274 271 269 268 261 259 258 258 255 253 254 255 254 252 260 260 258 248 244 245 249 253 251 244 241 243 243 241 238 236
287 290 293 294 294 293 293 291 292 290 283 275 274 276 273 269 270 265 257 259 259 256 254 257 258 258 261 265 263 259 255 251 250 250 253 254 250 248 246 243 243 244 243
285 289 290 291 293 291 289 289 289 283 280 278 275 274 270 266 270 269 261 260 260 259 259 262 265 264 265 266 264 262 258 257 252 251 250 251 252 249 246 244 246 249 246
288 291 292 291 291 289 287 285 280 283 283 282 280 278 269 264 265 267 268 263 259 259 259 261 265 266 267 267 268 264 260 255 255 255 250 247 250 248 247 240 242 249 257
293 297 299 295 293 293 285 276 278 282 285 289 286 280 270 266 267 270 272 265 257 258 264 265 268 268 269 271 267 264 254 255 259 257 249 245 249 249 245 241 237 240 247
303 303 299 293 293 291 278 274 279 282 291 292 287 279 274 273 273 273 270 265 260 263 264 270 275 274 276 274 270 268 260 252 257 255 250 247 249 249 251 256 247 242 248
312 310 305 302 301 294 274 275 281 289 293 289 285 283 283 281 274 271 269 265 262 264 267 269 277 280 280 280 276 270 270 270 255 251 249 251 253 260 262 262 250 244 253
314 317 312 309 311 307 283 280 291 294 290 287 286 287 288 286 281 276 273 270 264 262 266 269 276 286 288 286 286 278 276 275 269 265 273 271 270 274 268 260 253 256 244
315 316 314 311 314 316 303 290 299 297 289 288 290 289 287 288 283 277 270 269 266 264 262 263 271 280 284 284 285 281 274 278 272 270 266 259 271 275 274 260 260 265 256
313 313 312 313 316 319 318 313 306 297 290 292 290 286 279 280 281 279 277 274 269 267 267 268 268 270 274 283 290 285 278 277 266 263 253 246 250 254 249 253 262 266 250
314 317 317 317 318 322 323 324 317 301 291 288 289 283 281 282 281 285 295 289 277 283 276 276 273 273 276 285 284 284 283 282 269 256 239 241 244 248 249 238 236 239 236